# Land Stadt Wetter Temperatur Luftdruck Luftfeuchtigkeit Sichtweite Windgeschwindigkeit Windrichtung Ortszeit
1 ad Andorra la Vella Clouds 2 1022 61 0 8 21 02.08.2018 14:22
2 ae Dubai Clouds 22 1020 40 10000 5 0 02.08.2018 14:21
3 af Kabul Smoke 2 1021 37 7000 5 0 02.08.2018 14:21
4 ar Buenos Aires Clouds 22 1008 60 10000 8 250 02.08.2018 14:22
5 ar Esquel Clouds 9 1019 91 10000 13 250 02.08.2018 14:22
6 ar Ushuaia Rain 5 997 80 10000 33 230 02.08.2018 14:22
7 at Innsbruck Snow 1 1011 82 4000 2 0 02.08.2018 14:23
8 at Wien Rain 2 1008 80 10000 8 150 02.08.2018 14:22
9 au Alice Springs Rain 25 1007 78 10000 13 270 02.08.2018 14:21
10 au Darwin Rain 31 1004 74 10000 22 300 02.08.2018 14:22
11 au Perth Clouds 25 1007 57 10000 28 240 02.08.2018 14:21
12 au Sydney Clouds 25 1016 69 10000 21 110 02.08.2018 14:22
13 bg Sofia Rain 3 1011 86 8000 31 280 02.08.2018 14:21
14 bg Warna Clouds 9 1005 70 10000 4 0 02.08.2018 14:21
15 bo La Paz Fog 6 1035 93 4000 9 100 02.08.2018 14:22
16 bo Potisi Clouds 5 1014 60 0 10 266 02.08.2018 14:22
17 br Manaus Clouds 26 1010 88 10000 9 80 02.08.2018 14:21
18 br Rio de Janeiro Clouds 24 1011 94 10000 11 140 02.08.2018 14:22
19 bs Nassau Clouds 20 1014 93 10000 5 130 02.08.2018 14:22
20 ca Montreal Clear -10 1018 78 14484 9 10 02.08.2018 14:22
21 cd Kisangani Clouds 33 1012 40 0 5 100 02.08.2018 14:23
22 ch Andermatt Rain 0 1013 80 10000 21 300 02.08.2018 14:23
23 ch Bern Drizzle 3 1014 100 10000 8 100 02.08.2018 14:23
24 ck Avarua Clear 24 1013 100 10000 2 180 02.08.2018 14:22
25 cl Santiago Clear 16 1014 82 10000 13 180 02.08.2018 14:23
26 cn Lhasa Clear 3 1005 8 0 5 165 02.08.2018 14:22
27 cn Peking Clear 8 1024 22 10000 7 30 02.08.2018 14:23
28 cn Shanghai Clouds 8 1021 42 10000 25 320 02.08.2018 14:21
29 de Berlin Clouds 4 999 79 10000 30 250 02.08.2018 14:21
30 de Braunschweig Clouds 5 1000 80 10000 30 260 02.08.2018 14:21
31 de Bremen Clouds 5 998 80 10000 35 240 02.08.2018 14:22
32 de Dresden Clouds 3 1002 74 10000 21 240 02.08.2018 14:22
33 de Emden Rain 5 999 86 10000 28 250 02.08.2018 14:21
34 de Flensburg Rain 4 992 93 10000 15 230 02.08.2018 14:21
35 de Frankfurt Clouds 4 1008 70 10000 24 200 02.08.2018 14:22
36 de Freiburg Rain 4 1012 80 10000 9 140 02.08.2018 14:22
37 de Hamburg Snow 3 997 93 5000 17 290 02.08.2018 14:21
38 de Hannover Clouds 5 1000 75 10000 28 250 02.08.2018 14:21
39 de Helgoland Clouds 5 995 86 8000 33 260 02.08.2018 14:22
40 de Hiddensee Clouds 4 999 91 0 2 225 02.08.2018 14:21
41 de Kassel Clouds 3 1003 80 10000 13 220 02.08.2018 14:21
42 de Köln Clouds 4 1007 80 10000 30 240 02.08.2018 14:21
43 de Magdeburg Clouds 4 995 76 0 42 247 02.08.2018 14:22
44 de München Clouds 2 1010 74 10000 21 270 02.08.2018 14:21
45 de Nürnberg Rain 2 1008 80 10000 21 250 02.08.2018 14:21
46 de Oberstdorf Rain 1 1012 87 10000 11 260 02.08.2018 14:21
47 de Stuttgart Clouds 2 1010 80 10000 9 200 02.08.2018 14:22
48 de Torfhaus Clouds 4 1000 80 10000 30 260 02.08.2018 14:22
49 de Trier Clouds 2 1008 96 10000 22 220 02.08.2018 14:21
50 do Santo Domingo Clouds 23 1013 100 10000 8 20 02.08.2018 14:21
51 ec San Cristobal Rain 25 1011 87 0 18 203 02.08.2018 14:22
52 eg Kairo Mist 15 1023 72 4000 9 210 02.08.2018 14:22
53 es Barcelona Clouds 9 1021 87 10000 9 330 02.08.2018 14:22
54 es Las Palmas de Gran Canaria Clouds 17 1022 39 10000 8 300 02.08.2018 14:21
55 es Madrid Clouds 10 1024 100 10000 15 230 02.08.2018 14:23
56 es Palma de Mallorca Clouds 12 1022 93 10000 5 70 02.08.2018 14:22
57 es Sevilla Fog 10 1026 100 300 8 40 02.08.2018 14:22
58 es Tarifa Mist 10 1026 100 2000 9 90 02.08.2018 14:21
59 et Addis Abeba Clear 21 1015 40 0 9 114 02.08.2018 14:23
60 fi Helsinki Rain 1 997 97 6000 21 110 02.08.2018 14:21
61 fi Rovaniemi Snow -11 1005 85 10000 18 80 02.08.2018 14:21
62 fj Suva Clouds 28 1009 78 10000 5 170 02.08.2018 14:21
63 fr Bordeaux Clouds 8 1020 93 10000 11 220 02.08.2018 14:21
64 fr Nizza Clouds 12 1010 50 10000 35 270 02.08.2018 14:22
65 fr Paris Clouds 5 1012 81 10000 15 250 02.08.2018 14:22
66 gb Glasgow Rain 3 998 80 10000 21 250 02.08.2018 14:21
67 gb London Clear 3 1008 75 10000 22 250 02.08.2018 14:22
68 gb Manchester Rain 4 1004 86 10000 15 250 02.08.2018 14:21
69 gl Nuuk Clear -13 999 65 0 18 20 02.08.2018 14:22
70 gr Athen Clouds 14 1013 62 10000 20 277 02.08.2018 14:22
71 id Jakarta Clouds 31 1008 66 6000 17 310 02.08.2018 14:22
72 ie Dublin Clouds 4 1004 80 10000 22 250 02.08.2018 14:21
73 in Jagatsukh Clouds 3 1017 67 0 2 184 02.08.2018 14:22
74 in Mumbai Smoke 26 1016 47 4000 18 330 02.08.2018 14:22
75 in Nagpur Haze 26 1015 44 5000 4 340 02.08.2018 14:21
76 iq Bagdad Clouds 14 1017 58 10000 17 120 02.08.2018 14:22
77 is Reykjavik Clear -5 987 73 10000 9 40 02.08.2018 14:22
78 it Mailand Clear 5 1009 93 10000 8 250 02.08.2018 14:21
79 it Palermo Clouds 14 1020 82 10000 35 250 02.08.2018 14:22
80 it Rom Fog 9 1014 100 150 5 0 02.08.2018 14:23
81 jp Nagasaki Clouds 11 1011 71 10000 15 340 02.08.2018 14:21
82 jp Tokio Clouds 16 999 67 10000 11 190 02.08.2018 14:22
83 ke Nairobi Clouds 20 1023 82 10000 9 70 02.08.2018 14:22
84 kr Seoul Clouds 9 1014 45 10000 5 210 02.08.2018 14:21
85 ma Casablanca Clouds 6 1025 93 10000 5 120 02.08.2018 14:23
86 ma Marrakesch Clouds 7 1025 65 10000 8 80 02.08.2018 14:23
87 mg Antananarivo Clouds 27 1018 54 10000 9 70 02.08.2018 14:21
88 mn Ulaanbaatar Clear -7 1018 52 10000 7 0 02.08.2018 14:23
89 mn Uliastai Clouds -12 1025 70 0 6 176 02.08.2018 14:23
90 mv Male Clouds 27 1011 70 0 22 60 02.08.2018 14:23
91 mx Mexiko Stadt Clouds 10 1025 35 16093 5 37 02.08.2018 14:21
92 mx Veracruz Rain 22 1011 84 0 16 354 02.08.2018 14:21
93 no Hammerfest Clouds -7 1004 78 6000 52 170 02.08.2018 14:22
94 no Oslo Snow 1 985 98 9000 8 30 02.08.2018 14:23
95 nz Wellington Clear 19 1004 84 0 2 196 02.08.2018 14:23
96 pe Cusco Clouds 8 1030 87 10000 8 110 02.08.2018 14:23
97 pg Port Moresby Rain 30 1009 75 0 9 177 02.08.2018 14:21
98 ph Manila Clouds 29 1009 58 10000 18 280 02.08.2018 14:21
99 pt Lissabon Clouds 14 1024 100 10000 17 200 02.08.2018 14:22
100 qa Doha Clouds 21 1021 40 10000 4 0 02.08.2018 14:23
101 ru Amderma Clouds -22 1023 96 0 9 310 02.08.2018 14:23
102 ru Anadyr Snow -16 1017 84 10000 4 220 02.08.2018 14:23
103 ru Jakutsk Clouds -35 1032 66 10000 11 350 02.08.2018 14:22
104 ru Moskau Rain 1 1007 100 4200 11 150 02.08.2018 14:22
105 ru Surgut Clouds -26 1021 75 10000 18 260 02.08.2018 14:23
106 ru Werchojansk Snow -28 1023 99 0 6 91 02.08.2018 14:22
107 sa Riad Clouds 17 1019 21 10000 15 190 02.08.2018 14:21
108 sb Honiara Rain 28 1006 94 10000 11 180 02.08.2018 14:22
109 se Stockholm Rain 4 989 93 10000 8 140 02.08.2018 14:23
110 th Bangkok Clouds 33 1010 41 10000 11 160 02.08.2018 14:21
111 tr Alanya Rain 10 1021 81 5000 22 270 02.08.2018 14:22
112 tr Ankara Clouds 6 1016 70 10000 17 210 02.08.2018 14:23
113 tr Istanbul Clouds 12 1011 71 10000 35 200 02.08.2018 14:23
114 ua Kiew Fog 1 1000 100 450 14 130 02.08.2018 14:21
115 us Chicago Snow -1 1021 80 14484 8 20 02.08.2018 14:23
116 us Death Valley Clear 6 1020 35 0 3 314 02.08.2018 14:22
117 us Denver Clear -3 1018 73 16093 7 210 02.08.2018 14:21
118 us Fairbanks Clouds -33 997 74 16093 8 13 02.08.2018 14:23
119 us Honolulu Clouds 22 1019 69 16093 9 310 02.08.2018 14:22
120 us Las Vegas Clouds 7 1018 49 16093 8 270 02.08.2018 14:21
121 us Los Angeles Clear 12 1017 25 16093 13 250 02.08.2018 14:22
122 us Miami Clouds 17 1014 77 16093 8 300 02.08.2018 14:23
123 us New York Clouds 1 1015 51 16093 22 340 02.08.2018 14:22
124 us Nome Clear -27 1008 61 16093 14 13 02.08.2018 14:23
125 us Tucson Clear 5 1016 69 16093 13 120 02.08.2018 14:21
126 uy Montevideo Clouds 18 1008 88 10000 4 0 02.08.2018 14:22
127 vn Hanoi Clouds 16 1020 51 10000 13 360 02.08.2018 14:21
128 za Kapstadt Clouds 22 1017 83 10000 31 190 02.08.2018 14:22